Location: Newark
(43.4306°N, 0.3089°E)
Time: 11:27:20
(UTC+00:00)

Vanguard 1 - Pass Details

Date: 03 September 2019
Orbit: 654 x 3830 km, 34.3° (Epoch: 21 September)

Event Time Altitude Azimuth Distance (km) Brightness Sun altitude
Rises 03:39:46 0° 192° (SSW) 7,429 14.2 -18.5°
Reaches altitude 10° 03:49:26 10° 170° (S) 5,703 13.8 -17.0°
Maximum altitude 03:55:26 13° 148° (SSE) 4,886 13.7 -16.0°
Drops below altitude 10° 04:00:26 10° 125° (SE) 4,601 13.8 -15.2°
Sets 04:06:10 0° 100° (E) 4,924 14.6 -14.3°
